Terug naar catalogus

GAOFEN-5

ActiefWetenschapSSO
NORAD 43461·PAYLOAD·🇨🇳 China

Gelanceerd May 8, 2018 vanaf Taiyuan Satellite Launch Center

Loading…

Volgende Passages (komende 24 uur)

TLE

VersSource: Space-Track

Epoch: Sep 14, 2026, 09:22 UTC

1 43461U 18043A   26257.39076704  .00000214  00000-0  54108-4 0  9991
2 43461  98.4686 230.9016 0002389 132.4855 227.6547 14.60656590444717

Volg GAOFEN-5 in realtime met AllMySat

Download on the App Store